Weather History for Hailey, ID

Change the Weather History Date:

Monday, September 9, 2013

  Actual Average Record
Temperature  
Mean Temperature 60 °F -  
Max Temperature 73 °F 73 °F 86 °F (1999)
Min Temperature 48 °F 44 °F 37 °F (2001)
Degree Days  
Heating Degree Days 4    
Growing Degree Days 10 (Base 50)    
Moisture  
Dew Point 44 °F    
Average Humidity 61    
Maximum Humidity 82    
Minimum Humidity 38    
Precipitation  
Precipitation 0.00 in - - ()
Sea Level Pressure  
Sea Level Pressure 30.06 in    
Wind  
Wind Speed 7 mph (NW)    
Max Wind Speed 12 mph    
Max Gust Speed -    
Visibility 10 miles    
Events      
Averages and records for this station are not official NWS values.
T = Trace of Precipitation, MM = Missing Value Source: NWS Daily Summary

Daily Weather History Graph

Daily Weather History Graph

Search for Another Location

Airport:

Trip Planner

Search our weather history database for the weather conditions in past years. The results will help you decide how hot, cold, wet, or windy it might be!

Date:

Astronomy

Sep. 09, 2013 Rise Set
Actual Time 7:10 AM MDT 7:57 PM MDT
Civil Twilight 6:41 AM MDT 8:26 PM MDT
Nautical Twilight 6:06 AM MDT 9:00 PM MDT
Astronomical Twilight 5:30 AM MDT 9:36 PM MDT
Moon 11:45 AM MDT (9/9) 10:07 PM MDT (9/9)
Length of Visible Light 13h 45m
Length of Day
12h 47m
Waxing Crescent, 19% of the Moon is Illuminated
Sep 9
Waxing Crescent
Sep 12
First Quarter
Sep 19
Full
Sep 26
Last Quarter
Oct 4
New

Hourly Weather History & Observations

Time (MDT) Temp. Dew Point Humidity Pressure Visibility Wind Dir Wind Speed Gust Speed Precip Events Conditions
12:15 AM 59.0 °F 41.0 °F 51% 30.02 in 10.0 mi NW 11.5 mph - N/A   Clear
12:35 AM 55.4 °F 41.0 °F 58% 30.02 in 10.0 mi NW 8.1 mph - N/A   Clear
12:55 AM 55.4 °F 42.8 °F 63% 30.02 in 10.0 mi NW 9.2 mph - N/A   Clear
1:15 AM 55.4 °F 41.0 °F 58% 30.02 in 10.0 mi NW 8.1 mph - N/A   Clear
1:35 AM 55.4 °F 41.0 °F 58% 30.02 in 10.0 mi NW 8.1 mph - N/A   Clear
1:55 AM 55.4 °F 41.0 °F 58% 30.02 in 10.0 mi WNW 8.1 mph - N/A   Clear
2:15 AM 55.4 °F 41.0 °F 58% 30.02 in 10.0 mi NW 8.1 mph - N/A   Clear
2:35 AM 53.6 °F 41.0 °F 62% 30.03 in 10.0 mi WNW 9.2 mph - N/A   Clear
2:55 AM 53.6 °F 41.0 °F 62% 30.03 in 10.0 mi WNW 5.8 mph - N/A   Clear
3:15 AM 53.6 °F 41.0 °F 62% 30.04 in 10.0 mi NW 6.9 mph - N/A   Clear
3:35 AM 53.6 °F 41.0 °F 62% 30.04 in 10.0 mi WNW 5.8 mph - N/A   Clear
3:55 AM 51.8 °F 41.0 °F 67% 30.05 in 10.0 mi Calm Calm - N/A   Clear
4:15 AM 51.8 °F 42.8 °F 71% 30.05 in 10.0 mi Calm Calm - N/A   Clear
4:35 AM 50.0 °F 42.8 °F 76% 30.05 in 10.0 mi WNW 4.6 mph - N/A   Clear
4:55 AM 50.0 °F 42.8 °F 76% 30.06 in 10.0 mi Calm Calm - N/A   Clear
5:15 AM 50.0 °F 41.0 °F 71% 30.06 in 10.0 mi NW 3.5 mph - N/A   Clear
5:35 AM 48.2 °F 42.8 °F 82% 30.06 in 10.0 mi NNW 8.1 mph - N/A   Clear
5:55 AM 50.0 °F 41.0 °F 71% 30.06 in 10.0 mi NW 8.1 mph - N/A   Clear
6:15 AM 50.0 °F 41.0 °F 71% 30.06 in 10.0 mi NW 8.1 mph - N/A   Clear
6:35 AM 50.0 °F 41.0 °F 71% 30.08 in 10.0 mi NW 8.1 mph - N/A   Clear
6:47 AM 50.0 °F 41.0 °F 71% 30.08 in 10.0 mi WNW 6.9 mph - N/A   Clear
6:55 AM 50.0 °F 41.0 °F 71% 30.08 in 10.0 mi NW 8.1 mph - N/A   Clear
7:47 AM 48.2 °F 41.0 °F 76% 30.09 in 10.0 mi WNW 4.6 mph - N/A   Clear
8:47 AM 53.6 °F 42.8 °F 67% 30.10 in 10.0 mi West 4.6 mph - N/A   Clear
9:47 AM 59.0 °F 44.6 °F 59% 30.10 in 10.0 mi Calm Calm - N/A   Partly Cloudy
10:47 AM 62.6 °F 46.4 °F 55% 30.10 in 10.0 mi ESE 6.9 mph - N/A   Partly Cloudy
11:50 AM 64.4 °F 48.2 °F 56% 30.10 in 10.0 mi ESE 10.4 mph - N/A   Partly Cloudy
12:47 PM 66.2 °F 48.2 °F 52% 30.10 in 10.0 mi ESE 11.5 mph - N/A   Partly Cloudy
1:50 PM 69.8 °F 46.4 °F 43% 30.09 in 10.0 mi ESE 11.5 mph - N/A   Partly Cloudy
2:50 PM 71.6 °F 46.4 °F 41% 30.08 in 10.0 mi SSE 4.6 mph - N/A   Partly Cloudy
3:51 PM 71.6 °F 46.4 °F 41% 30.07 in 10.0 mi ESE 10.4 mph - N/A   Partly Cloudy
4:50 PM 73.4 °F 46.4 °F 38% 30.06 in 10.0 mi SE 5.8 mph - N/A   Partly Cloudy
5:47 PM 73.4 °F 46.4 °F 38% 30.06 in 10.0 mi SE 9.2 mph - N/A   Partly Cloudy
6:47 PM 69.8 °F 48.2 °F 46% 30.06 in 10.0 mi SE 6.9 mph - N/A   Partly Cloudy
7:47 PM 64.4 °F 51.8 °F 64% 30.06 in 10.0 mi SE 5.8 mph - N/A   Scattered Clouds
9:47 PM 60.8 °F 48.2 °F 63% 30.09 in 10.0 mi Calm Calm - N/A   Partly Cloudy
10:47 PM 57.2 °F 50.0 °F 77% 30.11 in 10.0 mi Calm Calm - N/A   Clear
11:15 PM 59.0 °F 46.4 °F 63% 30.11 in 10.0 mi NW 5.8 mph - N/A   Clear
11:35 PM 59.0 °F 46.4 °F 63% 30.12 in 10.0 mi WNW 6.9 mph - N/A   Clear
11:55 PM 57.2 °F 46.4 °F 67% 30.12 in 10.0 mi NW 5.8 mph - N/A   Clear